This is the latest recevied weather packets stored in our database for station/object SQ7IQO. If no packets are shown the sender has not sent any weather packets the latest 10 day(s).
| Time | Temp. | Humidity | Pressure | Rain* | Wind** | Luminosity | Snow |
|---|---|---|---|---|---|---|---|
| 1787917839 | 24.44° C | 40% | 1018.8 hPa | 0 mm | 0 m/s | - | - |
| 1787917780 | 25° C | 40% | 1018.8 hPa | 0 mm | 0.45 m/s, ° | - | - |
| 1787917720 | 24.44° C | 40% | 1018.8 hPa | 0 mm | 0.45 m/s, ° | - | - |
| 1787917660 | 24.44° C | 43% | 1018.8 hPa | 0 mm | 0 m/s | - | - |
| 1787917599 | 24.44° C | 41% | 1018.7 hPa | 0 mm | 0 m/s | - | - |
| 1787917539 | 23.89° C | 41% | 1018.8 hPa | 0 mm | 0 m/s | - | - |
| 1787917479 | 23.89° C | 39% | 1018.8 hPa | 0 mm | 0.45 m/s, ° | - | - |
| 1787917420 | 24.44° C | 40% | 1018.7 hPa | 0 mm | 0.89 m/s, ° | - | - |
| 1787917360 | 24.44° C | 40% | 1018.8 hPa | 0 mm | 0.45 m/s, ° | - | - |
| 1787917300 | 24.44° C | 39% | 1018.7 hPa | 0 mm | 0.89 m/s, ° | - | - |
| 1787917240 | 24.44° C | 39% | 1018.7 hPa | 0 mm | 0.45 m/s, ° | - | - |
| 1787917180 | 24.44° C | 39% | 1018.7 hPa | 0 mm | 0 m/s | - | - |
| 1787917120 | 24.44° C | 38% | 1018.6 hPa | 0 mm | 0.89 m/s, ° | - | - |
| 1787917060 | 24.44° C | 39% | 1018.7 hPa | 0 mm | 0.89 m/s, ° | - | - |
| 1787917000 | 25° C | 39% | 1018.6 hPa | 0 mm | 1.79 m/s, ° | - | - |
| 1787916940 | 25° C | 40% | 1018.6 hPa | 0 mm | 0.89 m/s, ° | - | - |
| 1787916880 | 25° C | 41% | 1018.8 hPa | 0 mm | 0.45 m/s, ° | - | - |
| 1787916820 | 25° C | 41% | 1018.7 hPa | 0 mm | 0.89 m/s, ° | - | - |
| 1787916760 | 25° C | 41% | 1018.8 hPa | 0 mm | 0.89 m/s, ° | - | - |
| 1787916700 | 25° C | 41% | 1018.8 hPa | 0 mm | 0.89 m/s, ° | - | - |
| 1787916639 | 25° C | 41% | 1018.9 hPa | 0 mm | 0.89 m/s, ° | - | - |
| 1787916580 | 25° C | 42% | 1018.8 hPa | 0 mm | 0.89 m/s, ° | - | - |
| 1787916519 | 25° C | 41% | 1018.8 hPa | 0 mm | 0.45 m/s, ° | - | - |
| 1787916460 | 25° C | 42% | 1018.7 hPa | 0 mm | 0 m/s | - | - |
| 1787916400 | 25° C | 40% | 1018.7 hPa | 0 mm | 0.89 m/s, ° | - | - |
* Rain latest hour (hover to see other rain measurements)
** Current wind speed in m/s (hover to see current wind gust speed)